Tracking 30402 objects as of 12-May-2025
HD Live streaming from Space Station
objects crossing your sky now

STARLINK-5074

Track STARLINK-5074 now!
10-day predictions
STARLINK-5074 is classified as:


NORAD ID: 55438
Int'l Code: 2023-014AZ
Perigee: 577.2 km
Apogee: 581.1 km
Inclination: 70.0 °
Period: 96.1 minutes
Semi major axis: 6950 km
RCS: Unknown
Launch date: January 31, 2023
Source: United States (US)
Launch site: AIR FORCE WESTERN TEST RANGE (AFWTR)
Your satellite tracking list
Your tracking list is empty




NASA's NSSDC Master Catalog

Two Line Element Set (TLE):
1 55438U 23014AZ  25131.89153962  .00000553  00000-0  54092-4 0  9997
2 55438  69.9995 105.2266 0002842 268.6392  91.4441 14.98341835125915
Source of the keplerian elements: AFSPC